Location: Chippewa Lake
(41.0698°N, 81.9010°W)
Time: 01:22:14
(UTC+00:00)

Cosmos 864 Rocket - Pass Details

Date: 09 May 2021
Orbit: 952 x 992 km, 82.9° (Epoch: 24 June)

Event Time Altitude Azimuth Distance (km) Brightness Sun altitude
Rises 04:45:28 0° 353° (N) 3,654 8.7 -30.8°
Reaches altitude 10° 04:47:59 10° 354° (N) 2,700 7.7 -30.9°
Enters shadow 04:53:40 75° 23° (NNE) 991 4.5 -31.1°
